Tracking 29493 objects as of 9-Sep-2024
HD Live streaming from Space Station
objects crossing your sky now

FENGYUN 1C DEB

Track FENGYUN 1C DEB now!
10-day predictions


NORAD ID: 31062
Int'l Code: 1999-025BFG
Perigee: 859.6 km
Apogee: 1,115.9 km
Inclination: 99.0 °
Period: 104.7 minutes
Semi major axis: 7358 km
RCS: 0.0043 m2 (small)
Launch date: May 10, 1999
Source: People's Republic of China (PRC)
Launch site: Taiyaun Space Center, China (TSC)

Note: This is SATELLITE DEBRIS
Your satellite tracking list
Your tracking list is empty




NASA's NSSDC Master Catalog

Two Line Element Set (TLE):
1 31062U 99025BFG 24252.36831936  .00000827  00000-0  80872-3 0  9996
2 31062  99.0179  93.9772 0174107  98.8266  74.0374 13.75295056879041
Source of the keplerian elements: AFSPC